GFSGL_925_thetae_132.txt.gz
Theta_e
324 325 325 326 326 327 327 327 327 327 327 326 325 325 325 324 323 322 322 322 321 321 322 321 321 321 320 320 319 317 314 310 306 307 307 305 303 301 298 295 294 293 294
323 324 325 325 326 325 326 326 326 326 326 325 325 324 324 323 322 321 322 322 322 322 322 322 321 320 318 317 315 313 311 309 305 303 303 301 300 297 296 293 292 294 294
321 323 324 325 325 325 325 325 325 323 323 322 322 322 322 322 322 322 322 322 323 322 320 319 317 316 314 312 311 309 307 305 302 300 299 297 294 292 292 291 292 292 291
318 320 321 321 322 323 323 322 321 322 321 321 321 321 321 321 321 321 321 320 319 317 316 314 313 312 311 310 309 307 304 302 300 298 295 294 292 291 291 290 290 291 291
314 317 319 319 319 320 320 321 321 320 320 320 320 319 320 319 319 318 317 316 314 311 311 309 308 307 306 305 303 301 300 297 296 294 293 292 291 290 290 291 290 291 291
312 313 316 317 317 317 318 318 318 318 318 318 317 316 315 314 313 313 312 311 309 308 306 305 305 304 303 303 300 298 298 296 295 294 293 293 292 291 291 291 290 289 292
304 305 308 311 312 314 314 313 312 312 312 310 310 310 309 308 307 307 307 307 306 305 304 303 302 301 301 300 298 297 296 296 296 295 294 293 292 291 290 290 290 289 290
304 304 304 304 305 305 304 303 304 305 306 306 305 305 305 304 303 303 303 303 302 301 301 301 300 299 298 298 297 296 294 292 292 291 291 290 290 290 291 289 288 287 287
303 303 304 304 304 304 303 302 302 303 303 303 303 302 302 301 301 302 302 302 301 299 297 296 295 295 295 295 294 293 292 292 291 291 290 290 291 290 289 288 288 287 288
302 303 304 304 304 303 303 302 302 302 302 300 299 299 299 300 300 299 299 299 296 294 293 293 293 293 293 292 292 292 291 290 290 290 290 289 288 288 287 286 286 286 286
303 303 303 303 303 303 302 301 300 298 297 297 296 295 295 296 295 295 295 295 294 292 291 291 291 292 292 291 290 290 290 290 289 288 288 287 287 286 286 285 285 285 285
302 302 301 301 300 300 299 297 297 296 295 293 291 290 291 292 292 292 292 293 293 292 290 289 288 289 289 289 289 289 289 288 287 286 286 286 286 286 286 285 285 285 285
299 298 298 298 298 298 297 295 294 294 291 288 288 287 288 290 290 291 291 291 290 290 289 288 287 287 287 287 287 287 287 287 286 286 286 286 286 285 285 285 285 285 285
295 293 293 293 293 293 293 293 292 291 290 288 288 287 286 287 289 290 290 289 289 288 288 286 285 285 285 284 285 285 285 285 285 285 285 286 285 285 285 285 285 284 284
292 290 289 290 290 290 290 291 291 291 291 289 288 287 286 286 287 289 289 289 287 286 286 285 285 286 286 286 285 285 285 285 285 284 284 284 284 283 283 283 284 284 283
290 289 289 288 288 288 287 286 289 291 289 289 290 289 288 289 287 286 286 287 286 285 285 286 286 286 286 285 285 284 283 282 282 281 282 282 282 282 282 282 282 282 283
291 289 288 287 287 287 287 287 286 285 286 287 288 287 288 287 286 286 286 286 286 286 285 285 284 284 283 282 282 282 281 280 280 281 281 282 282 282 282 282 282 282 282
289 288 287 287 287 287 287 287 286 286 286 285 285 286 286 286 286 286 285 284 284 283 282 282 282 281 279 279 278 278 278 277 277 277 277 276 276 277 278 279 279 279 279
287 286 287 287 287 287 286 285 284 284 283 281 283 283 282 282 284 286 284 283 282 280 279 279 279 278 278 278 277 276 275 275 275 274 274 273 273 273 274 274 274 274 274
284 284 283 282 283 283 283 281 280 280 279 278 279 279 279 278 280 282 283 281 280 279 278 278 277 276 276 275 274 274 273 273 273 272 272 271 271 270 271 270 271 272 273
281 282 282 282 281 281 280 279 279 278 277 277 277 278 278 277 278 278 278 278 277 277 276 275 275 274 274 273 273 272 272 271 271 270 270 270 269 269 269 268 269 270 270
279 279 279 278 278 278 278 277 276 276 275 274 274 275 275 276 275 275 275 275 275 274 274 274 274 273 272 272 272 271 270 270 269 269 269 269 269 268 268 267 267 268 268
277 277 276 276 277 277 276 275 275 274 274 273 273 273 274 274 273 273 273 273 273 272 272 272 271 271 271 270 270 270 269 269 269 268 268 268 268 267 266 266 266 266 267
274 274 274 274 273 273 273 273 272 272 272 272 272 272 272 272 272 272 272 271 271 271 271 270 270 270 269 269 269 269 268 268 267 267 266 266 267 266 265 265 265 265 265
272 272 272 272 272 272 272 271 271 271 271 271 271 272 272 271 271 271 271 271 270 270 269 269 269 268 268 268 267 267 267 267 266 266 266 266 266 266 265 265 265 265 265
271 271 271 271 271 271 271 271 271 271 271 271 271 270 270 270 270 270 269 269 269 269 268 268 268 268 267 267 267 267 267 266 266 265 265 265 264 264 264 264 265 265 264

GFSGL_925_thetae_138.txt.gz
Theta_e
316 319 324 325 328 330 331 332 332 331 330 331 331 330 329 328 327 327 326 325 325 325 325 324 323 322 323 322 322 321 321 320 317 314 311 309 307 306 305 303 302 301 299
311 315 320 323 324 326 328 329 330 331 331 331 331 329 328 327 327 326 325 325 324 324 323 323 322 321 321 320 320 320 319 318 314 309 307 305 304 303 302 300 299 299 297
310 312 317 321 323 325 326 327 328 329 330 330 330 329 328 327 326 326 325 325 324 324 323 321 321 321 319 319 319 317 316 314 312 308 306 303 302 301 299 297 295 295 294
309 310 313 319 322 324 325 326 327 328 329 329 328 328 327 326 325 325 325 325 325 323 321 321 321 320 320 319 317 316 313 311 308 304 302 301 299 297 296 293 294 293 292
309 308 309 312 317 322 324 325 326 325 325 326 325 325 325 325 324 324 324 323 322 322 321 320 320 319 318 318 316 314 311 308 304 301 298 296 296 295 293 293 292 292 292
310 308 307 308 313 318 320 324 323 323 323 323 324 324 323 323 322 322 322 322 321 321 319 318 317 315 316 314 312 311 310 307 303 300 296 296 295 295 293 292 291 290 291
309 309 307 306 308 313 315 317 320 321 321 322 321 321 321 320 321 320 320 320 319 318 317 315 314 311 310 308 306 304 302 300 301 301 298 297 295 295 293 291 290 291 290
308 308 308 306 306 306 311 315 316 317 317 319 319 319 319 318 317 317 317 317 316 315 315 313 311 308 305 304 301 299 298 297 297 296 296 295 294 292 291 291 291 289 287
305 305 306 306 305 304 304 310 313 313 314 314 315 315 314 314 312 313 312 312 312 310 309 307 307 304 302 300 299 296 295 294 293 293 292 292 291 290 291 290 287 286 286
302 303 304 304 304 303 303 302 308 311 312 311 311 312 312 311 310 309 308 308 306 304 303 302 300 300 299 298 298 295 293 292 292 291 291 290 290 289 287 286 286 285 286
298 299 300 302 303 303 303 302 300 304 306 306 306 306 306 306 306 305 304 304 304 300 298 296 296 296 296 295 296 295 294 292 290 290 289 287 286 286 285 285 285 285 285
295 296 297 299 300 301 301 299 297 298 298 298 299 300 302 302 302 302 302 301 301 299 296 295 294 293 293 293 293 292 292 290 288 288 286 286 286 285 286 285 285 285 285
293 294 294 296 298 299 298 296 296 296 296 295 295 295 295 298 298 298 299 299 298 297 297 294 292 291 290 290 290 290 289 288 287 286 286 286 286 285 285 285 285 284 284
290 292 293 293 294 294 294 295 294 294 295 295 294 295 294 293 293 295 295 294 294 295 293 290 290 290 290 289 289 289 288 287 286 287 287 285 285 284 284 284 283 283 283
287 290 291 292 292 293 293 294 293 294 295 295 295 295 294 291 292 293 292 291 291 291 289 288 288 287 287 287 287 287 286 286 286 286 285 285 283 283 283 282 282 282 282
285 287 289 291 292 292 293 292 293 293 294 295 295 295 294 293 292 292 291 290 290 289 288 286 285 285 285 285 285 285 285 285 284 284 283 283 282 282 282 281 281 281 281
276 280 285 289 291 292 292 292 292 290 293 294 295 294 293 293 291 291 291 289 288 287 287 286 286 286 286 285 285 284 283 284 282 282 281 282 282 282 282 281 281 280 279
272 276 281 287 290 291 292 292 292 292 290 289 291 292 291 292 291 291 290 289 288 288 287 287 286 286 285 284 284 283 282 280 280 281 281 281 280 280 279 278 278 278 277
271 275 280 287 290 291 291 291 291 291 290 289 288 289 289 289 290 290 289 289 288 287 286 286 285 284 283 283 282 281 280 279 279 279 278 278 277 276 276 276 275 274 274
273 277 282 285 289 290 290 290 290 289 289 288 288 288 288 288 289 289 289 287 287 285 284 284 283 283 282 281 280 279 278 277 276 276 276 275 275 274 274 273 272 272 272
274 276 280 282 284 286 289 289 289 289 288 287 287 286 288 288 288 284 283 283 283 283 283 283 281 281 280 279 278 277 276 275 275 274 274 273 273 272 272 271 271 270 270
273 274 275 276 278 279 280 281 282 281 279 279 280 282 281 280 279 279 281 282 282 282 281 280 279 278 278 277 276 275 275 274 273 273 272 272 271 271 270 270 269 269 268
271 272 272 272 273 274 274 275 276 276 275 275 275 277 278 278 278 279 278 278 277 277 277 277 276 275 275 275 275 275 275 274 273 273 272 271 270 269 269 269 268 267 267
268 269 270 271 271 271 271 271 271 271 272 272 272 273 273 273 273 274 274 273 274 273 273 274 274 275 274 274 274 273 273 272 272 272 271 270 269 268 268 267 267 267 267
266 267 267 268 268 269 270 270 270 270 270 270 270 270 271 271 271 271 272 271 271 272 272 273 273 273 273 272 272 271 271 271 270 270 269 269 268 267 267 267 266 266 266
264 265 265 265 266 266 267 267 267 267 268 268 268 269 269 269 269 269 269 270 270 270 271 271 271 271 270 270 270 269 269 269 269 269 268 268 267 266 266 266 266 265 265

GFSGL_925_thetae_141.txt.gz
Theta_e
310 310 314 318 322 324 328 331 331 331 331 330 330 330 330 328 328 326 326 326 325 324 324 324 324 324 323 323 323 322 321 321 320 319 317 317 312 312 310 308 305 302 301
311 310 310 311 315 320 323 327 330 331 331 331 330 330 330 329 328 327 326 325 325 325 324 324 324 323 323 323 322 321 320 320 319 317 312 311 308 308 306 303 302 301 301
311 310 310 309 310 315 319 322 324 327 329 330 330 329 328 328 328 327 326 326 325 325 324 323 323 323 322 321 321 319 320 319 318 313 311 306 303 302 300 299 300 297 296
309 309 309 310 309 309 312 319 322 324 326 327 328 329 329 328 328 327 326 326 325 324 324 323 323 323 322 320 319 319 319 317 315 309 306 303 301 298 298 299 296 293 293
305 306 307 308 308 308 308 311 318 323 324 325 326 328 328 329 327 327 326 325 325 324 324 324 323 323 322 321 320 318 317 313 309 303 301 298 297 296 297 296 293 292 291
302 303 304 304 304 306 306 307 312 318 322 324 323 324 326 327 327 327 326 325 324 323 321 321 322 322 320 320 319 318 318 314 306 303 299 297 297 297 296 294 292 290 290
299 300 300 301 301 302 304 304 305 310 314 319 320 321 322 323 323 324 324 324 322 321 320 321 320 319 318 316 314 312 311 310 309 308 302 300 299 299 296 292 291 291 292
297 298 298 298 298 299 300 302 303 304 306 313 316 318 319 320 321 322 322 322 321 321 320 320 319 318 315 312 309 306 305 303 302 303 302 302 300 298 296 294 292 291 289
294 295 295 295 296 296 297 298 301 301 301 305 312 315 315 317 318 319 319 318 317 317 318 317 315 314 312 307 305 302 299 297 296 297 298 298 296 294 292 292 291 288 286
291 292 292 293 294 294 295 296 298 299 299 300 305 311 312 313 315 315 315 314 312 312 311 310 310 310 308 304 303 300 295 293 294 293 292 291 291 291 291 291 291 287 286
289 288 286 289 291 293 294 294 296 297 298 298 299 304 308 308 310 311 310 310 309 307 306 305 304 304 303 301 301 298 297 296 293 292 291 290 290 290 288 286 286 286 286
281 281 283 287 289 291 292 292 293 294 295 295 296 297 301 305 306 306 306 306 307 306 302 302 303 300 298 297 295 296 295 294 291 289 288 288 287 286 285 285 285 285 285
277 278 282 286 287 289 291 291 292 293 294 295 295 295 297 298 302 304 303 302 302 301 301 301 301 297 295 293 292 293 292 291 289 287 286 286 285 285 285 285 285 285 284
274 278 281 281 284 288 290 291 292 292 294 294 295 295 296 296 294 297 299 298 297 297 298 297 295 292 292 291 290 290 290 289 288 287 286 286 286 285 285 285 284 284 283
272 273 276 280 283 284 286 290 291 292 293 294 294 295 295 296 294 295 296 295 294 293 295 292 290 290 289 289 289 288 288 288 287 286 286 285 285 285 284 283 283 283 282
269 272 272 273 276 279 284 288 290 292 292 293 293 294 295 295 296 294 295 296 293 293 292 290 289 289 288 288 287 286 286 286 286 286 285 284 284 283 283 282 282 281 281
268 269 270 271 273 276 280 286 290 291 292 292 292 293 294 294 294 294 293 293 293 292 292 289 289 288 287 287 287 286 286 285 286 285 284 283 282 282 282 281 281 281 281
268 269 270 271 273 275 280 286 289 291 291 292 291 292 293 294 294 293 293 291 290 290 291 289 288 287 286 286 286 285 283 284 284 284 284 283 282 281 281 281 280 279 278
268 270 272 273 274 277 281 285 288 290 291 291 292 290 292 293 293 293 292 291 290 289 289 288 287 287 286 286 285 283 282 282 282 282 281 281 281 281 280 279 278 277 276
270 271 272 274 275 279 282 283 288 290 290 291 290 290 290 290 291 291 291 290 290 289 288 288 287 286 285 283 282 281 281 281 281 280 280 280 279 278 277 277 276 275 274
269 270 271 272 273 274 275 277 278 282 287 288 287 286 289 289 290 290 290 289 289 287 286 283 282 281 282 282 281 281 280 278 278 278 278 277 276 275 275 275 274 273 273
268 268 269 270 271 272 272 272 273 274 274 274 275 276 278 280 279 278 278 279 279 280 281 283 282 281 281 282 281 280 278 277 277 276 276 275 274 274 273 273 272 271 271
266 266 267 268 268 269 270 270 271 271 271 271 271 271 272 272 273 274 275 277 279 280 280 281 281 280 280 280 280 279 278 277 277 276 275 274 273 272 272 271 270 269 269
264 264 265 266 266 267 267 268 268 268 269 269 269 269 269 269 270 271 271 273 275 275 276 278 278 278 277 277 277 277 276 276 276 274 274 273 272 271 270 270 269 269 268
262 262 263 264 264 264 265 265 266 266 267 267 267 267 268 268 268 269 269 270 271 273 273 273 274 274 274 274 274 274 274 273 273 272 272 271 271 270 269 269 268 267 267
260 260 261 261 262 262 263 263 264 264 264 265 265 265 266 266 266 267 267 268 269 269 269 270 270 271 271 271 271 270 270 270 270 270 270 269 269 269 268 268 267 267 266

GFSGL_925_thetae_144.txt.gz
Theta_e
308 309 309 309 310 311 316 322 327 330 330 329 329 328 328 328 328 327 326 326 325 325 324 324 323 322 322 322 322 322 322 321 321 322 320 320 318 316 316 311 309 309 306
305 305 307 309 308 309 309 311 316 323 328 329 329 329 328 328 328 327 326 326 325 325 325 324 323 323 323 323 323 322 322 321 321 320 317 314 313 310 309 306 307 305 303
301 303 304 304 305 306 306 307 308 312 319 324 328 328 328 328 328 327 327 326 326 325 325 324 324 324 323 323 323 322 321 321 320 319 313 309 307 307 303 301 302 302 300
298 299 300 301 301 302 303 304 306 307 311 317 322 325 326 327 328 327 327 326 326 325 325 325 324 324 323 322 322 321 320 319 317 315 310 305 303 301 301 300 298 299 295
296 297 297 297 298 299 300 301 302 304 305 306 313 320 323 325 326 327 327 326 326 325 325 324 324 324 324 323 321 319 318 315 314 308 304 300 298 296 297 299 297 295 293
294 294 295 295 295 295 296 297 300 302 302 304 305 308 314 321 324 325 327 326 325 324 324 323 324 323 323 323 322 322 321 315 310 307 302 300 299 300 299 298 295 291 291
291 292 292 292 292 292 293 294 295 297 299 300 302 304 306 312 317 320 323 325 322 323 323 322 322 322 322 322 321 320 319 318 316 314 305 304 302 304 303 296 294 292 293
288 289 289 290 289 288 290 292 293 294 296 297 299 300 303 306 311 315 317 320 321 321 321 322 322 322 321 319 317 315 314 312 310 311 310 310 309 307 304 304 299 293 292
286 286 287 285 283 284 287 289 291 292 293 295 297 299 298 300 305 310 314 315 317 317 319 319 319 318 319 318 314 309 307 305 304 305 304 304 304 303 302 299 292 290 285
283 284 281 280 281 282 285 288 289 290 291 292 293 295 297 298 298 303 307 309 311 312 314 313 314 315 316 317 313 307 300 300 300 299 298 298 298 298 298 297 295 289 285
279 277 277 277 278 280 285 287 288 289 290 291 292 294 296 297 297 300 302 304 306 306 308 310 312 311 311 310 309 307 303 304 297 297 296 295 294 293 292 292 292 294 289
274 273 273 274 277 281 282 282 285 288 289 291 292 293 295 295 295 296 298 302 305 305 305 307 309 310 308 307 303 303 301 300 295 293 291 290 290 290 290 290 289 288 287
271 271 271 272 273 275 278 282 285 288 289 290 291 293 294 295 295 295 296 298 301 301 303 305 307 307 306 301 299 300 296 295 291 289 289 289 289 290 289 287 286 285 285
269 269 270 271 272 273 274 276 278 281 285 289 290 291 293 294 294 295 295 295 297 298 298 299 301 302 300 297 294 294 293 293 291 290 289 288 288 287 286 285 284 284 284
267 268 269 270 270 271 272 274 276 279 283 286 289 290 291 292 293 294 295 294 294 295 294 295 294 293 293 291 291 291 290 290 289 289 288 286 286 285 284 284 284 283 283
267 268 268 269 270 270 271 272 274 277 281 284 287 290 291 292 292 293 294 294 295 294 292 294 293 292 292 291 291 290 288 288 288 287 287 286 285 285 284 284 283 283 282
267 267 268 269 270 271 272 273 274 276 280 283 287 290 291 292 292 292 293 294 294 294 292 294 293 292 292 291 291 289 288 288 288 287 286 286 285 285 284 283 282 281 281
266 268 269 270 271 272 273 274 276 278 281 283 287 289 291 291 292 292 292 293 293 293 292 293 293 292 292 291 290 289 288 287 286 286 285 285 284 283 283 281 281 280 279
267 268 268 269 270 271 272 273 274 276 278 279 284 289 290 291 291 291 291 293 293 293 292 292 293 292 291 290 289 288 287 286 286 285 284 283 283 282 281 281 280 279 278
266 266 267 268 269 269 270 271 271 272 273 274 275 275 277 279 289 290 291 292 292 292 291 291 292 290 289 289 288 288 286 285 284 283 282 282 281 281 280 279 278 277 277
265 265 265 266 267 267 268 269 269 270 270 270 271 271 275 273 273 276 281 287 289 290 290 290 289 288 288 287 286 284 283 282 282 281 280 279 279 278 278 278 277 276 276
263 263 264 265 265 265 266 267 267 267 268 268 269 269 270 269 269 269 270 271 274 277 282 285 285 285 285 284 282 281 280 279 278 278 278 278 278 278 278 277 276 274 273
261 261 262 263 263 264 264 265 265 265 266 266 267 267 267 268 268 268 268 268 269 272 274 276 278 279 279 279 279 279 279 278 279 280 280 278 277 276 275 274 273 271 271
259 260 260 260 261 261 262 262 263 263 264 264 264 265 265 266 266 266 266 267 267 269 270 271 273 274 276 277 278 278 279 279 280 280 279 277 275 274 273 273 272 271 270
258 258 258 258 258 259 259 260 260 261 261 262 262 263 263 263 264 264 264 265 265 266 267 268 269 270 271 272 274 275 276 277 278 277 276 276 275 274 273 271 270 270 269
257 257 256 256 256 256 257 257 257 258 258 259 259 260 261 261 261 262 262 262 263 264 265 266 267 268 269 270 270 271 272 272 273 273 273 273 272 271 271 270 269 268 268

GFSGL_925_thetae_147.txt.gz
Theta_e
299 301 302 303 304 304 305 306 307 309 312 320 326 328 328 327 327 326 326 325 325 324 324 323 323 323 322 322 321 320 320 320 320 321 321 322 319 321 318 319 316 312 311
297 297 298 298 299 300 301 302 303 304 306 309 312 320 325 326 326 326 327 326 326 325 325 324 324 324 323 322 322 321 321 321 321 321 321 319 318 316 316 314 311 307 306
295 295 296 296 296 296 297 298 299 300 302 304 306 309 316 322 324 324 325 326 326 326 326 325 325 324 323 323 322 322 321 321 321 321 321 314 311 311 308 305 304 304 305
292 292 293 293 293 293 294 293 294 296 298 300 302 303 306 311 318 323 325 326 326 326 326 325 325 325 324 323 322 322 322 321 320 320 319 308 305 303 302 301 299 299 302
290 290 291 290 290 291 290 290 291 292 294 296 298 301 302 304 309 316 320 323 324 325 325 325 325 325 325 324 323 322 321 320 319 315 308 301 299 297 298 301 299 299 297
288 288 288 287 288 288 286 287 288 289 291 293 295 296 299 301 302 304 310 316 321 323 323 324 324 324 324 324 324 324 322 320 316 311 308 305 301 302 302 301 297 292 291
285 286 284 286 285 282 282 284 285 287 289 291 292 293 295 297 300 301 302 307 313 317 321 322 323 322 323 324 324 323 323 322 322 314 312 306 305 307 306 298 297 296 295
283 281 282 280 279 279 280 281 282 285 288 289 290 291 292 293 296 298 299 299 304 310 315 318 319 320 322 323 321 320 321 321 319 317 314 314 314 312 310 310 302 295 293
278 277 277 276 276 277 277 278 281 285 286 286 287 289 290 291 293 294 296 297 299 303 307 312 315 317 318 320 320 314 315 315 315 313 313 311 310 310 309 304 294 293 287
275 274 273 274 274 274 275 278 280 281 281 283 286 288 289 290 292 293 294 295 295 298 301 305 307 311 313 314 315 311 305 307 309 305 305 304 304 304 305 307 302 294 287
272 271 271 271 271 273 274 274 276 278 281 284 286 288 289 290 291 293 294 294 294 295 297 300 302 306 309 310 311 310 308 309 307 304 302 301 300 300 300 300 300 298 291
269 269 269 269 270 271 272 273 274 275 276 279 281 284 287 289 291 292 293 294 295 295 295 296 299 302 306 307 308 308 307 305 302 296 295 293 293 294 296 296 297 295 294
267 268 268 269 269 270 271 271 272 273 275 277 279 282 284 287 289 290 292 293 294 294 295 295 297 299 301 304 305 304 301 299 296 293 293 292 293 294 293 292 291 290 289
267 268 268 269 269 269 270 271 271 272 273 275 276 279 281 283 285 288 289 291 292 292 293 294 295 296 297 299 299 298 296 296 295 295 294 292 291 290 288 289 286 286 286
267 267 268 268 269 270 270 271 273 273 274 276 277 279 281 283 285 287 289 290 291 292 293 293 293 293 294 294 294 295 293 293 293 293 292 290 288 287 287 286 285 284 285
265 266 267 268 269 270 270 271 272 274 275 277 279 281 282 283 285 286 288 290 291 292 293 293 293 293 293 294 293 293 292 291 292 292 291 289 288 287 286 285 284 284 284
264 266 267 268 268 269 269 270 271 271 272 273 275 275 277 277 279 281 283 290 291 292 292 293 293 293 294 293 293 293 293 291 291 291 290 288 288 287 286 285 284 284 283
266 266 266 266 266 268 268 269 269 269 270 270 270 272 272 274 275 278 280 287 291 291 291 292 293 293 293 293 293 292 293 291 290 290 289 288 288 287 286 285 284 284 282
264 264 264 264 265 266 266 267 267 268 268 268 268 269 270 271 271 271 272 272 274 283 289 291 292 292 292 292 292 292 292 291 290 289 289 288 287 287 286 285 284 283 281
262 263 262 263 264 264 265 265 266 266 266 266 267 267 270 268 268 268 268 269 269 270 272 274 287 291 291 291 291 291 290 290 289 289 288 288 287 286 285 284 282 281 279
261 261 261 261 262 262 262 263 264 264 264 265 265 265 269 266 266 267 267 267 267 268 268 270 273 275 288 290 290 289 289 289 288 288 287 285 284 283 282 281 279 279 276
260 260 260 260 260 260 260 261 261 262 262 263 263 263 265 264 264 264 265 265 266 266 266 267 268 270 272 275 281 287 287 286 285 284 282 282 281 280 279 278 276 275 275
259 259 259 258 258 258 258 258 259 259 259 260 260 261 261 262 262 263 262 263 263 264 265 265 266 266 268 271 274 277 279 279 280 280 279 278 277 277 276 276 275 274 274
259 258 257 257 257 256 256 256 257 257 257 257 257 258 258 259 259 260 259 260 261 262 263 264 264 265 266 267 269 271 273 276 277 277 277 276 276 276 275 275 274 273 272
257 257 256 255 255 255 255 255 255 255 255 255 256 256 256 256 257 257 257 257 258 259 260 262 262 263 264 266 266 268 269 272 273 274 275 276 275 275 275 273 272 271 270
257 256 255 255 255 254 254 253 253 253 253 253 254 254 254 254 255 255 255 255 255 257 257 259 260 262 263 264 265 266 267 269 270 272 273 274 275 273 272 271 270 269 269